User: anonymous   Login
Location: Star Hoppers Observatory
(42.7905°N, 83.6127°W)
Time: 11:34:12
(UTC-04:00)
Language:

NOSS 3-1 (A) - Orbit

View from above orbital plane
View from above orbital plane
View from above satellite
View from above satellite

Ground track
Ground track

The orbit data is extracted from the following two-line orbital elements,

1 26905U 01040A   18164.89929605 0.00000000  00000-0  00000-0 0    08
2 26905  63.4130 189.7982 0405000 358.9061   1.0939 13.40761530    08
Epoch (UTC): 13 June 2018 21:34:59
Eccentricity: 0.0405000
inclination: 63.4130°
perigee height: 803 km
apogee height: 1409 km
right ascension of ascending node: 189.7982°
argument of perigee: 358.9061°
revolutions per day: 13.40761530
mean anomaly at epoch: 1.0939°
orbit number at epoch: 0

The dashed part of the orbit path shows where the satellite is in the earth's shadow,  

DLR